De Soto, IL

2:02 AM CDT on July 26, 2016 (GMT -0500)
Southern Illinois

Weather History for KMDH - July, 2013

Change the Weather History Date:

Saturday, July 27, 2013

  Actual Average Record
Temperature  
Mean Temperature 70 °F -  
Max Temperature 79 °F 88 °F 110 °F (1930)
Min Temperature 57 °F 65 °F 45 °F (1962)
Cooling Degree Days 5    
Growing Degree Days 20 (Base 50)    
Moisture  
Dew Point 62 °F    
Average Humidity 76    
Maximum Humidity 94    
Minimum Humidity 43    
Precipitation  
Precipitation 0.07 in - - ()
Sea Level Pressure  
Sea Level Pressure 29.97 in    
Wind  
Wind Speed 7 mph (NW)    
Max Wind Speed 14 mph    
Max Gust Speed 18 mph    
Visibility 9 miles    
Events Rain    
Averages and records for this station are not official NWS values.
T = Trace of Precipitation, MM = Missing Value Source: NWS Daily Summary

Daily Weather History Graph

Daily Weather History Graph

Search for Another Location

Airport or City:

Trip Planner

Search our weather history database for the weather conditions in past years. The results will help you decide how hot, cold, wet, or windy it might be!

Date:

Astronomy

Jul. 27, 2013 Rise Set
Actual Time 5:56 AM CDT 8:09 PM CDT
Civil Twilight 5:27 AM CDT 8:39 PM CDT
Nautical Twilight 4:50 AM CDT 9:15 PM CDT
Astronomical Twilight 4:11 AM CDT 9:54 PM CDT
Moon 11:05 PM CDT (7/27) 11:29 AM CDT (7/27)
Length of Visible Light 15h 12m
Length of Day
14h 13m
Waning Gibbous, 70% of the Moon is Illuminated
Jul 27
Waning Gibbous
Jul 29
Last Quarter
Aug 6
New
Aug 14
First Quarter
Aug 20
Full

Hourly Weather History & Observations

Time (CDT) Temp. Dew Point Humidity Pressure Visibility Wind Dir Wind Speed Gust Speed Precip Events Conditions
12:52 AM 69.1 °F 66.9 °F 93% 29.97 in 5.0 mi Calm Calm - 0.00 in   Overcast
1:52 AM 69.1 °F 66.9 °F 93% 29.98 in 10.0 mi WSW 8.1 mph - 0.00 in Rain Light Rain
2:52 AM 69.1 °F 66.9 °F 93% 29.96 in 8.0 mi SSW 5.8 mph - 0.00 in   Overcast
3:20 AM 69.8 °F 66.2 °F 88% 29.97 in 4.0 mi SSW 8.1 mph - 0.01 in Rain Light Rain
3:49 AM 69.8 °F 66.2 °F 88% 29.97 in 10.0 mi SW 11.5 mph - 0.03 in   Overcast
3:52 AM 69.1 °F 66.0 °F 90% 29.96 in 10.0 mi SW 9.2 mph - 0.03 in   Overcast
4:05 AM 69.8 °F 66.2 °F 88% 29.96 in 10.0 mi SW 9.2 mph - N/A   Overcast
4:52 AM 68.0 °F 64.9 °F 90% 29.95 in 9.0 mi SW 12.7 mph - 0.01 in Rain Light Rain
5:28 AM 66.2 °F 64.4 °F 94% 29.96 in 10.0 mi SW 10.4 mph - 0.00 in   Overcast
5:52 AM 66.9 °F 64.0 °F 90% 29.96 in 6.0 mi NW 3.5 mph - 0.01 in Rain Light Rain
6:45 AM 66.2 °F 64.4 °F 94% 29.97 in 10.0 mi West 3.5 mph - 0.00 in   Overcast
6:52 AM 66.9 °F 64.9 °F 93% 29.96 in 10.0 mi West 4.6 mph - 0.00 in   Overcast
7:10 AM 68.0 °F 66.2 °F 94% 29.97 in 10.0 mi West 3.5 mph - 0.01 in   Mostly Cloudy
7:30 AM 68.0 °F 66.2 °F 94% 29.98 in 8.0 mi West 5.8 mph - 0.01 in   Mostly Cloudy
7:52 AM 69.1 °F 66.0 °F 90% 29.98 in 9.0 mi NNW 6.9 mph - 0.01 in   Overcast
8:05 AM 69.8 °F 66.2 °F 88% 29.99 in 10.0 mi NNW 8.1 mph - N/A   Overcast
8:12 AM 69.8 °F 66.2 °F 88% 29.99 in 10.0 mi North 5.8 mph - N/A   Overcast
8:22 AM 71.6 °F 64.4 °F 78% 29.99 in 10.0 mi North 6.9 mph - N/A   Mostly Cloudy
8:52 AM 71.1 °F 64.9 °F 81% 29.98 in 10.0 mi North 6.9 mph - N/A   Overcast
9:32 AM 71.6 °F 62.6 °F 73% 29.99 in 10.0 mi North 8.1 mph - N/A   Mostly Cloudy
9:52 AM 72.0 °F 63.0 °F 73% 29.98 in 10.0 mi NNW 8.1 mph - N/A   Mostly Cloudy
10:03 AM 73.4 °F 64.4 °F 73% 29.98 in 10.0 mi NW 6.9 mph - N/A   Scattered Clouds
10:52 AM 73.9 °F 64.0 °F 71% 29.97 in 10.0 mi NW 6.9 mph - 0.01 in   Scattered Clouds
11:52 AM 77.0 °F 61.0 °F 58% 29.97 in 10.0 mi NW 12.7 mph - N/A   Mostly Cloudy
12:52 PM 78.1 °F 60.1 °F 54% 29.96 in 10.0 mi NW 13.8 mph - N/A   Scattered Clouds
1:52 PM 79.0 °F 60.1 °F 52% 29.95 in 10.0 mi WNW 12.7 mph 17.3 mph N/A   Partly Cloudy
2:52 PM 77.0 °F 57.0 °F 50% 29.95 in 10.0 mi WNW 10.4 mph - N/A   Mostly Cloudy
3:52 PM 79.0 °F 55.9 °F 45% 29.94 in 10.0 mi NNW 11.5 mph 18.4 mph N/A   Mostly Cloudy
4:52 PM 77.0 °F 53.1 °F 43% 29.94 in 10.0 mi NNW 10.4 mph - N/A   Partly Cloudy
5:52 PM 77.0 °F 53.1 °F 43% 29.94 in 10.0 mi NNW 11.5 mph - N/A   Clear
6:52 PM 75.0 °F 53.1 °F 46% 29.95 in 10.0 mi NNW 8.1 mph - N/A   Clear
7:52 PM 70.0 °F 53.1 °F 55% 29.96 in 10.0 mi North 5.8 mph - N/A   Clear
8:52 PM 66.0 °F 54.0 °F 65% 29.97 in 10.0 mi North 4.6 mph - N/A   Clear
9:52 PM 63.0 °F 55.0 °F 75% 29.99 in 10.0 mi North 4.6 mph - N/A   Clear
10:52 PM 61.0 °F 53.1 °F 75% 29.99 in 10.0 mi North 3.5 mph - N/A   Clear
11:52 PM 57.0 °F 54.0 °F 89% 30.00 in 10.0 mi Calm Calm - N/A   Clear